CAL082 EGLL-RCTP

Flight info

Callsign CAL082
Flight time N/A
Altitude 29000
Route DET L6 DVR UL9 KONAN UL607 KOK DCT REMBA DCT MATUG DCT BOMBI/N0492F310 DCT TENLO DCT DEXIT DCT ARSIN DCT TEGRI DCT DINRO N743 UDROS UM859 KARDE UL851 TBN UM11 EKTES/N0493F330 UM11 REBLO M11 LUSAL N701 BAKUV L850 DUKAN B449 RANAH L750 MERUN G452 CHI/N0499F350 G452 LKN A201 LSO A599 LINSO/K0924S1070 A599 APUPA/K0915S1130 A599 POU B330 TAMOT/N0494F370 B330 BIGEX DCT DALOL V631 ENVAR M750 EXTRA/N0520F290 M750 TONGA TONGA1B
Aircraft B77W/H-SDE1E2E3FGHIJ2J3J4J5M1RWXY/LB1D1

Departure

Time 2026-05-06 00:40
Airport London Heathrow Airport (EGLL)

Arrival

Time N/A
Airport Taiwan Taoyuan International Airport (RCTP)
Time Latitude Longitude Altitude Speed Heading
2026-05-06 00:08 51.47015 -0.46541 83 ft 0 kts 55°
2026-05-06 00:28 51.47014 -0.46543 83 ft 1 kts 55°
2026-05-06 00:28 51.47006 -0.46562 83 ft 2 kts 55°
2026-05-06 00:29 51.46997 -0.46582 83 ft 2 kts 55°
2026-05-06 00:29 51.46988 -0.46602 83 ft 2 kts 56°
2026-05-06 00:29 51.46982 -0.46624 83 ft 2 kts 87°
2026-05-06 00:29 51.46984 -0.46647 83 ft 2 kts 115°
2026-05-06 00:30 51.46993 -0.46667 83 ft 2 kts 143°
2026-05-06 00:30 51.47005 -0.46679 83 ft 2 kts 150°
2026-05-06 00:30 51.47017 -0.46691 83 ft 0 kts 147°
2026-05-06 00:30 51.47019 -0.46693 83 ft 0 kts 146°
2026-05-06 00:31 51.47018 -0.46693 83 ft 0 kts 146°
2026-05-06 00:32 51.47018 -0.46692 83 ft 0 kts 146°
2026-05-06 00:32 51.47001 -0.46674 83 ft 5 kts 146°
2026-05-06 00:32 51.46952 -0.46620 83 ft 11 kts 146°
2026-05-06 00:33 51.46878 -0.46539 83 ft 9 kts 145°
2026-05-06 00:33 51.46830 -0.46486 83 ft 7 kts 146°
2026-05-06 00:33 51.46786 -0.46441 83 ft 8 kts 152°
2026-05-06 00:33 51.46726 -0.46420 83 ft 10 kts 179°
2026-05-06 00:34 51.46668 -0.46456 83 ft 9 kts 237°
2026-05-06 00:34 51.46657 -0.46568 83 ft 10 kts 270°
2026-05-06 00:34 51.46657 -0.46695 83 ft 11 kts 270°
2026-05-06 00:34 51.46656 -0.46831 83 ft 12 kts 269°
2026-05-06 00:35 51.46656 -0.46977 83 ft 13 kts 270°
2026-05-06 00:35 51.46655 -0.47133 83 ft 14 kts 271°
2026-05-06 00:35 51.46655 -0.47296 83 ft 14 kts 270°
2026-05-06 00:35 51.46655 -0.47462 83 ft 15 kts 270°
2026-05-06 00:36 51.46655 -0.47636 83 ft 15 kts 270°
2026-05-06 00:36 51.46653 -0.47813 83 ft 16 kts 270°
2026-05-06 00:36 51.46652 -0.47997 83 ft 16 kts 270°
2026-05-06 00:36 51.46652 -0.48185 83 ft 16 kts 270°
2026-05-06 00:37 51.46652 -0.48360 83 ft 14 kts 270°
2026-05-06 00:37 51.46651 -0.48505 83 ft 11 kts 270°
2026-05-06 00:37 51.46650 -0.48632 83 ft 11 kts 270°
2026-05-06 00:37 51.46635 -0.48736 83 ft 9 kts 225°
2026-05-06 00:38 51.46574 -0.48779 83 ft 9 kts 194°
2026-05-06 00:38 51.46507 -0.48768 83 ft 9 kts 149°
2026-05-06 00:38 51.46477 -0.48683 83 ft 8 kts 96°
2026-05-06 00:38 51.46478 -0.48564 83 ft 23 kts 90°
2026-05-06 00:39 51.46480 -0.47985 83 ft 79 kts 90°
2026-05-06 00:39 51.46484 -0.46823 83 ft 129 kts 90°
2026-05-06 00:39 51.46489 -0.45145 84 ft 171 kts 90°
2026-05-06 00:39 51.46485 -0.43088 273 ft 190 kts 88°
2026-05-06 00:40 51.46471 -0.40934 727 ft 199 kts 93°
2026-05-06 00:40 51.46139 -0.38893 1574 ft 188 kts 109°
2026-05-06 00:40 51.45396 -0.37053 1699 ft 209 kts 128°
2026-05-06 00:40 51.44426 -0.35195 1751 ft 223 kts 116°
2026-05-06 00:41 51.43724 -0.32985 2165 ft 221 kts 110°
2026-05-06 00:41 51.43178 -0.30714 2569 ft 221 kts 102°
2026-05-06 00:41 51.42773 -0.28275 2820 ft 233 kts 99°
2026-05-06 00:41 51.42404 -0.25622 3024 ft 248 kts 98°
2026-05-06 00:42 51.42038 -0.22915 3474 ft 253 kts 98°
2026-05-06 00:42 51.41660 -0.20148 4012 ft 255 kts 98°
2026-05-06 00:42 51.41276 -0.17351 4467 ft 260 kts 99°
2026-05-06 00:42 51.40882 -0.14489 4940 ft 264 kts 99°
2026-05-06 00:43 51.40484 -0.11605 5425 ft 267 kts 99°
2026-05-06 00:43 51.40078 -0.08665 5871 ft 271 kts 99°
2026-05-06 00:43 51.39664 -0.05674 5951 ft 272 kts 100°
2026-05-06 00:43 51.39249 -0.02683 5959 ft 272 kts 99°
2026-05-06 00:44 51.38833 0.00305 5958 ft 271 kts 99°
2026-05-06 00:44 51.38421 0.03266 5960 ft 271 kts 99°
2026-05-06 00:44 51.38012 0.06196 5961 ft 271 kts 99°
2026-05-06 00:44 51.37597 0.09169 5966 ft 272 kts 99°
2026-05-06 00:45 51.37182 0.12127 5966 ft 272 kts 99°
2026-05-06 00:45 51.36768 0.15072 5965 ft 272 kts 99°
2026-05-06 00:45 51.36354 0.18019 5968 ft 273 kts 99°
2026-05-06 00:45 51.35934 0.20996 5968 ft 272 kts 99°
2026-05-06 00:46 51.35518 0.23942 5966 ft 272 kts 99°
2026-05-06 00:46 51.35103 0.26879 5964 ft 272 kts 99°
2026-05-06 00:46 51.34687 0.29814 5965 ft 272 kts 99°
2026-05-06 00:46 51.34266 0.32779 5975 ft 271 kts 99°
2026-05-06 00:47 51.33849 0.35704 5957 ft 271 kts 99°
2026-05-06 00:47 51.33431 0.38637 5956 ft 271 kts 99°
2026-05-06 00:47 51.33013 0.41559 5948 ft 271 kts 99°
2026-05-06 00:47 51.32590 0.44520 5946 ft 270 kts 99°
2026-05-06 00:48 51.32174 0.47418 5946 ft 270 kts 99°
2026-05-06 00:48 51.31747 0.50393 5948 ft 271 kts 99°
2026-05-06 00:48 51.31323 0.53340 5942 ft 271 kts 99°
2026-05-06 00:48 51.30893 0.56316 5943 ft 271 kts 99°
2026-05-06 00:49 51.30464 0.59289 5943 ft 271 kts 99°
2026-05-06 00:49 51.29980 0.62255 6103 ft 279 kts 103°
2026-05-06 00:49 51.29424 0.65186 6728 ft 276 kts 104°
2026-05-06 00:49 51.28872 0.68143 7211 ft 278 kts 104°
2026-05-06 00:50 51.28367 0.70886 7637 ft 280 kts 104°
2026-05-06 00:50 51.27818 0.73881 8125 ft 281 kts 104°
2026-05-06 00:50 51.27287 0.76780 8578 ft 283 kts 104°
2026-05-06 00:50 51.26732 0.79801 9031 ft 285 kts 104°
2026-05-06 00:51 51.26183 0.82784 9466 ft 287 kts 104°
2026-05-06 00:51 51.25625 0.85813 9894 ft 290 kts 104°
2026-05-06 00:51 51.25049 0.88936 10274 ft 294 kts 104°
2026-05-06 00:51 51.24458 0.92137 10560 ft 304 kts 104°
2026-05-06 00:52 51.23842 0.95469 10665 ft 319 kts 105°
2026-05-06 00:52 51.23195 0.98956 10787 ft 335 kts 105°
2026-05-06 00:52 51.22516 1.02608 10939 ft 350 kts 105°
2026-05-06 00:52 51.21806 1.06424 11142 ft 364 kts 105°
2026-05-06 00:53 51.21073 1.10349 11374 ft 377 kts 105°
2026-05-06 00:53 51.20312 1.14418 11685 ft 387 kts 105°
2026-05-06 00:53 51.19532 1.18576 12204 ft 392 kts 105°
2026-05-06 00:53 51.18745 1.22764 12780 ft 395 kts 105°
2026-05-06 00:54 51.17952 1.26970 13340 ft 400 kts 105°
2026-05-06 00:54 51.17144 1.31255 13919 ft 403 kts 105°
2026-05-06 00:54 51.16403 1.35529 14491 ft 406 kts 100°
2026-05-06 00:54 51.16042 1.40031 15053 ft 409 kts 93°
2026-05-06 00:55 51.15827 1.44599 15662 ft 412 kts 92°
2026-05-06 00:55 51.15619 1.49096 16289 ft 414 kts 92°
2026-05-06 00:55 51.15400 1.53753 16870 ft 418 kts 92°
2026-05-06 00:55 51.15175 1.58435 17407 ft 422 kts 93°
2026-05-06 00:56 51.14946 1.63155 17977 ft 425 kts 93°
2026-05-06 00:56 51.14712 1.67914 18538 ft 429 kts 94°
2026-05-06 00:56 51.14477 1.72656 19077 ft 432 kts 94°
2026-05-06 00:56 51.14236 1.77450 19618 ft 435 kts 94°
2026-05-06 00:57 51.13993 1.82252 20136 ft 438 kts 94°
2026-05-06 00:57 51.13746 1.87085 20663 ft 441 kts 94°
2026-05-06 00:57 51.13493 1.91996 21157 ft 444 kts 94°
2026-05-06 00:57 51.13240 1.96870 21648 ft 447 kts 94°
2026-05-06 00:58 51.12983 2.01779 22095 ft 450 kts 94°
2026-05-06 00:58 51.12718 2.06789 22514 ft 454 kts 94°
2026-05-06 00:58 51.12453 2.11775 22958 ft 457 kts 94°
2026-05-06 00:58 51.12183 2.16804 23410 ft 460 kts 95°
2026-05-06 00:59 51.11907 2.21889 23851 ft 463 kts 95°
2026-05-06 00:59 51.11625 2.27046 24298 ft 465 kts 95°
2026-05-06 00:59 51.11344 2.32158 24750 ft 468 kts 95°
2026-05-06 00:59 51.11054 2.37380 25169 ft 470 kts 95°
2026-05-06 01:00 51.10764 2.42556 25558 ft 474 kts 95°
2026-05-06 01:00 51.10470 2.47774 25949 ft 476 kts 95°
2026-05-06 01:00 51.10171 2.53029 26326 ft 480 kts 95°
2026-05-06 01:00 51.09868 2.58327 26725 ft 482 kts 95°
2026-05-06 01:01 51.09526 2.63594 27121 ft 484 kts 98°
2026-05-06 01:01 51.08793 2.68878 27486 ft 486 kts 106°
2026-05-06 01:01 51.07876 2.74044 27867 ft 488 kts 107°
2026-05-06 01:01 51.06930 2.79268 28293 ft 490 kts 107°
2026-05-06 01:02 51.05979 2.84508 28792 ft 489 kts 107°
2026-05-06 01:02 51.04092 2.94854 28880 ft 486 kts 106°
2026-05-06 01:03 51.02190 3.05229 28883 ft 485 kts 107°
2026-05-06 01:03 51.00267 3.15658 28872 ft 485 kts 107°
2026-05-06 01:04 50.98365 3.25921 28879 ft 484 kts 107°
2026-05-06 01:04 50.96453 3.36178 28883 ft 484 kts 107°
2026-05-06 01:05 50.94546 3.46353 28880 ft 482 kts 106°
2026-05-06 01:05 50.92619 3.56578 28879 ft 481 kts 106°